x

8413320 - Bar Harbor, Me (atgm1) Weather Station

2:18 - Sat 23rd Sep 2017 All times are EDT. -4 hours from GMT.

  • Wind
    3mph, 5mph gusts
  • Sea Temp 57°f
  • Air Temp 60°f
  • Sea Pressure 1017.8mb
  • 8413320 - Bar Harbor, Me
  • 8413320 - Bar Harbor, Me

More Historic Weather Station data

Upgrade to MSW Pro to gain access to the past 30 days of data for over 8000 Wavebouys and Weather Stations around the globe.

Join

Comparision Forecast

View Surf forecast
   
sam. 09/23 2:18 3 5 mph 1017.8mb 57f 60f
2:12 5 6 mph 1017.8mb 57f 60f
2:06 5 7 mph 1017.7mb 57f 61f
2:00 3 6 mph 1017.7mb 57f 61f
1:54 3 6 mph 1017.9mb 57f 62f
1:48 1 2 mph 1017.9mb 57f 62f
1:42  -  1 mph 1018mb 57f 62f
1:36  -  2 mph 1018mb 57f 62f
1:30 1 2 mph 1018mb 57f 62f
1:24 1 2 mph 1018.2mb 57f 62f
1:18 1 3 mph 1018.1mb 57f 61f
1:12 3 3 mph 1018.2mb 57f 62f
1:06 3 5 mph 1018.2mb 57f 62f
1:00 3 5 mph 1018.3mb 57f 62f
12:54 3 3 mph 1018.2mb 56f 61f
12:48 2 2 mph 1018.2mb 56f 62f
12:42 1 1 mph 1018.1mb 57f 62f
12:36  -  0 mph 1017.9mb 57f 61f
12:30  -  2 mph 1017.7mb 56f 61f
12:24  -  1 mph 1017.9mb 56f 61f
12:18 1 2 mph 1017.9mb 56f 62f
12:12 2 2 mph 1018mb 56f 63f
12:06  -  2 mph 1017.9mb 56f 63f
12:00 2 5 mph 1017.7mb 56f 64f
ven. 09/22 11:54 2 5 mph 1017.6mb 56f 64f
11:48 3 5 mph 1017.6mb 56f 64f
11:42 3 5 mph 1017.7mb 56f 64f
11:36 2 2 mph 1018mb 56f 64f
11:30 2 2 mph 1018mb 56f 64f
11:24 1 2 mph 1018.1mb 56f 64f
11:18  -  1 mph 1018.2mb 56f 64f
11:12  -  1 mph 1018.3mb 56f 64f
11:06 1 2 mph 1018.3mb 56f 64f
11:00 2 3 mph 1018.3mb 56f 64f
10:54  -  1 mph 1018.3mb 56f 64f
10:48 1 3 mph 1018.3mb 56f 64f
10:42 2 3 mph 1018.4mb 56f 64f
10:36 1 3 mph 1018.5mb 56f 64f
10:30  -  1 mph 1018.5mb 56f 64f
10:24 1 2 mph 1018.5mb 56f 64f
10:18  -  2 mph 1018.5mb 56f 64f
10:12 2 3 mph 1018.5mb 56f 65f
10:06 2 3 mph 1018.4mb 56f 64f
10:00 2 3 mph 1018.4mb 56f 64f
9:54  -  1 mph 1018.4mb 56f 64f
9:48 1 3 mph 1018.4mb 56f 64f
9:42 2 5 mph 1018.2mb 57f 64f
9:36 3 5 mph 1018.2mb 57f 64f
9:30 1 3 mph 1018.2mb 57f 65f
9:24 3 6 mph 1018.2mb 56f 65f
9:18 2 6 mph 1018.2mb 57f 65f
9:12 5 7 mph 1018.3mb 56f 65f
9:06 1 6 mph 1018.3mb 56f 65f
9:00 2 8 mph 1018.3mb 56f 65f
8:54 3 5 mph 1018.4mb 56f 65f
8:48 5 6 mph 1018.4mb 56f 65f
8:42 3 5 mph 1018.5mb 57f 65f
8:36 3 6 mph 1018.5mb 57f 65f
8:30 2 7 mph 1018.3mb 57f 66f
8:24 3 5 mph 1018.3mb 57f 66f
8:18 2 5 mph 1018.2mb 57f 66f
8:12 3 5 mph 1018.3mb 57f 66f
8:06 3 5 mph 1018.3mb 57f 66f
8:00 2 5 mph 1018.2mb 57f 66f
7:54 3 5 mph 1018.3mb 57f 66f
7:48 3 6 mph 1018.4mb 57f 66f
7:42 3 6 mph 1018.4mb 58f 66f
7:36 5 6 mph 1018.4mb 58f 66f
7:30 3 6 mph 1018.5mb 58f 66f
7:24 5 7 mph 1018.5mb 58f 67f
7:18 6 10 mph 1018.5mb 58f 67f
7:12 3 5 mph 1018.5mb 58f 67f
7:06 5 7 mph 1018.4mb 58f 67f
7:00 5 5 mph 1018.4mb 58f 67f
6:54 3 6 mph 1018.3mb 58f 67f
6:48 3 3 mph 1018.3mb 58f 67f
6:42 2 3 mph 1018.4mb 58f 67f
6:36 2 3 mph 1018.3mb 58f 67f
6:30 2 2 mph 1018.2mb 58f 67f
6:24  -  2 mph 1018.2mb 58f 66f
6:18 2 3 mph 1018.2mb 58f 67f
6:12 2 3 mph 1018.1mb 58f 67f
6:06  -  2 mph 1018.2mb 58f 67f
6:00 1 3 mph 1018.2mb 58f 67f
5:54 1 2 mph 1018.3mb 58f 66f
5:48 1 2 mph 1018.4mb 58f 67f
5:42 2 3 mph 1018.5mb 58f 67f
5:36 2 3 mph 1018.6mb 58f 67f
5:30 2 5 mph 1018.5mb 58f 67f
5:24 2 3 mph 1018.4mb 58f 67f
5:18 2 3 mph 1018.4mb 58f 67f
5:12 1 3 mph 1018.4mb 57f 67f
5:06 3 6 mph 1018.5mb 57f 66f
5:00 5 6 mph 1018.6mb 57f 66f
4:54 3 7 mph 1018.7mb 57f 66f
4:48 5 6 mph 1018.7mb 57f 66f
4:42 5 6 mph 1018.8mb 57f 66f
4:36 6 6 mph 1018.9mb 57f 65f
4:30 3 6 mph 1018.9mb 57f 67f
4:24 2 5 mph 1018.8mb 58f 67f
4:18 5 6 mph 1018.8mb 57f 67f
4:12 6 7 mph 1018.7mb 57f 67f
4:06 5 8 mph 1018.7mb 57f 67f
4:00 3 6 mph 1018.7mb 57f 67f
3:54 6 9 mph 1018.7mb 57f 66f
3:48 6 9 mph 1018.6mb 57f 66f
3:42 7 9 mph 1018.7mb 57f 66f
3:36 7 8 mph 1018.7mb 57f 65f
3:30 6 9 mph 1018.8mb 57f 65f
3:24 7 9 mph 1018.9mb 57f 65f
3:18 6 8 mph 1018.8mb 57f 66f
3:12 5 7 mph 1018.9mb 57f 67f
3:06 3 7 mph 1018.9mb 57f 66f
3:00 3 5 mph 1018.9mb 57f 67f
2:54 3 6 mph 1018.9mb 57f 67f
2:48 3 5 mph 1018.9mb 57f 67f
2:42 5 6 mph 1018.9mb 57f 67f
2:36 5 7 mph 1018.9mb 57f 67f
2:30 6 10 mph 1019mb 57f 67f
2:24 10 13 mph 1019.1mb 56f 67f
2:18 7 14 mph 1019.2mb 56f 67f
2:12 3 6 mph 1019.1mb 56f 66f
2:06 3 5 mph 1019.1mb 57f 67f
2:00 3 5 mph 1019.2mb 57f 66f
1:54 5 7 mph 1019.2mb 56f 67f
1:48 6 9 mph 1019.2mb 56f 66f
1:42 9 13 mph 1019.2mb 56f 66f
1:36 11 15 mph 1019.4mb 56f 66f
1:30 10 13 mph 1019.5mb 57f 66f
1:24 5 7 mph 1019.4mb 56f 65f
1:18 2 3 mph 1019.5mb 57f 64f
1:12 2 3 mph 1019.5mb 56f 64f
1:06 5 6 mph 1019.6mb 56f 64f
1:00 3 7 mph 1019.7mb 57f 64f
12:54 6 6 mph 1019.8mb 57f 64f
12:48 5 6 mph 1019.8mb 57f 64f
12:42 3 6 mph 1019.8mb 57f 64f
12:36 6 6 mph 1019.9mb 57f 63f
12:30 5 5 mph 1019.9mb 57f 63f
12:24 3 5 mph 1020.1mb 57f 63f
12:18 3 3 mph 1020.1mb 57f 63f
12:12 2 3 mph 1020.2mb 57f 63f
12:06 3 5 mph 1020.2mb 56f 63f
12:00 3 6 mph 1020.2mb 56f 62f
11:54 5 6 mph 1020.2mb 56f 62f
11:48 5 8 mph 1020.2mb 56f 62f
11:42 6 8 mph 1020.2mb 56f 62f
11:36 6 9 mph 1020.2mb 56f 62f
11:30 8 10 mph 1020.3mb 56f 62f
11:24 6 11 mph 1020.3mb 56f 60f
11:18 8 10 mph 1020.2mb 56f 61f
11:12 7 10 mph 1020.2mb 56f 61f
11:06 8 9 mph 1020.2mb 56f 61f
11:00 7 9 mph 1020.3mb 56f 61f
10:54 7 9 mph 1020.2mb 56f 60f
10:48 5 7 mph 1020.2mb 56f 59f
10:42 7 9 mph 1020.2mb 56f 60f
10:36 7 9 mph 1020.2mb 56f 59f
10:30 8 9 mph 1020.4mb 56f 59f
10:24 6 9 mph 1020.5mb 56f 59f
10:18 5 7 mph 1020.5mb 56f 58f
10:12 6 8 mph 1020.5mb 56f 58f
10:06 7 9 mph 1020.5mb 56f 58f
10:00 7 8 mph 1020.6mb 56f 58f
9:54 6 7 mph 1020.6mb 57f 57f
9:48 6 7 mph 1020.6mb 56f 57f
9:42 6 7 mph 1020.6mb 56f 57f
9:36 5 7 mph 1020.6mb 56f 57f
9:30 5 7 mph 1020.7mb 57f 57f
9:24 5 8 mph 1020.7mb 57f 57f
9:18 7 9 mph 1020.7mb 57f 56f
9:12 9 11 mph 1020.6mb 57f 56f
9:06 8 10 mph 1020.6mb 57f 56f
9:00 6 8 mph 1020.6mb 57f 56f
8:54 7 11 mph 1020.7mb 57f 56f
8:48 7 13 mph 1020.7mb 57f 56f
8:42 10 13 mph 1020.7mb 57f 55f
8:36 8 13 mph 1020.8mb 57f 55f
8:30 10 13 mph 1020.8mb 57f 55f
8:24 8 10 mph 1020.8mb 57f 55f
8:18 7 10 mph 1020.9mb 57f 55f
8:12 8 11 mph 1020.8mb 57f 55f
8:06 8 10 mph 1020.6mb 58f 55f
8:00 5 6 mph 1020.8mb 58f 54f
7:54 5 10 mph 1020.7mb 58f 54f
7:48 6 10 mph 1020.8mb 58f 54f
7:42 6 9 mph 1020.7mb 58f 54f
7:36 8 10 mph 1020.7mb 58f 53f
7:30 8 13 mph 1020.7mb 58f 53f
7:24 11 14 mph 1020.7mb 58f 53f
7:18 9 13 mph 1020.8mb 58f 53f
7:12 9 13 mph 1020.7mb 58f 53f
7:06 11 13 mph 1020.6mb 58f 53f
7:00 9 14 mph 1020.6mb 58f 53f
6:54 9 13 mph 1020.6mb 58f 54f
6:48 10 13 mph 1020.5mb 58f 54f
6:42 13 14 mph 1020.6mb 58f 54f
6:36 9 10 mph 1020.6mb 58f 54f
6:30 9 11 mph 1020.5mb 58f 54f
6:24 8 10 mph 1020.4mb 58f 54f
6:18 9 10 mph 1020.4mb 58f 54f
6:12 8 10 mph 1020.3mb 58f 54f
6:06 8 10 mph 1020.2mb 58f 54f
6:00 6 8 mph 1020.1mb 58f 55f
5:54 5 8 mph 1020.1mb 58f 55f
5:48 6 9 mph 1020mb 58f 55f
5:42 7 9 mph 1020.1mb 58f 55f
5:36 7 9 mph 1020.1mb 58f 55f
5:30 6 9 mph 1020.1mb 58f 55f
5:24 6 9 mph 1020.1mb 58f 55f
5:18 7 9 mph 1020.1mb 58f 55f
5:12 7 10 mph 1020.2mb 58f 55f
5:06 6 11 mph 1020.2mb 58f 55f
5:00 7 10 mph 1020.3mb 58f 55f
4:54 8 13 mph 1020.3mb 58f 55f
4:48 9 14 mph 1020.2mb 58f 55f
4:42 9 13 mph 1020.2mb 58f 55f
4:36 10 11 mph 1020.3mb 58f 55f
4:30 8 13 mph 1020.4mb 58f 55f
4:24 8 11 mph 1020.4mb 58f 55f
4:18 6 9 mph 1020.4mb 58f 55f
4:12 9 11 mph 1020.5mb 58f 55f
4:06 7 10 mph 1020.3mb 58f 55f
4:00 7 10 mph 1020.3mb 58f 55f
3:48 6 9 mph 1020.3mb 58f 55f
3:42 8 13 mph 1020.3mb 58f 56f
3:36 7 14 mph 1020.3mb 58f 56f
3:30 10 13 mph 1020.2mb 58f 56f
3:24 8 11 mph 1020.3mb 58f 56f
3:18 9 13 mph 1020.3mb 58f 56f
3:12 9 13 mph 1020.4mb 58f 56f
3:06 8 11 mph 1020.4mb 58f 56f
3:00 9 14 mph 1020.3mb 58f 56f
2:54 8 13 mph 1020.4mb 58f 56f
2:48 10 13 mph 1020.5mb 58f 56f
2:42 9 14 mph 1020.5mb 58f 56f
2:36 10 14 mph 1020.6mb 58f 56f
2:30 9 15 mph 1020.7mb 58f 56f
2:24 8 13 mph 1020.8mb 58f 56f
2:18 9 14 mph 1020.8mb 58f 57f
2:12 9 15 mph 1020.9mb 58f 57f
2:06 10 14 mph 1020.9mb 58f 57f
2:00 9 13 mph 1021mb 57f 57f
1:54 8 13 mph 1020.9mb 57f 57f
1:48 8 11 mph 1021mb - -
1:42 8 13 mph 1021mb - -
1:36 11 14 mph 1020.9mb - -
1:30 10 13 mph 1020.8mb 57f 57f
1:24 9 13 mph 1020.8mb 58f 57f
1:18 10 14 mph 1020.8mb 58f 58f
1:12 9 13 mph 1020.8mb 58f 58f
1:06 11 14 mph 1020.8mb 58f 58f
1:00 10 15 mph 1020.8mb 58f 58f
12:54 9 13 mph 1020.9mb 58f 58f
12:48 10 15 mph 1020.9mb 58f 58f
12:42 13 17 mph 1020.9mb 58f 58f
12:36 11 16 mph 1020.8mb 58f 58f
12:30 11 16 mph 1020.8mb 58f 58f
12:24 11 17 mph 1020.8mb 58f 58f
12:18 10 14 mph 1020.8mb 58f 59f
12:12 9 13 mph 1020.9mb 58f 59f
12:06 9 11 mph 1021mb 58f 59f
12:00 8 11 mph 1021mb 58f 59f
jeu. 09/21 11:54 8 10 mph 1021mb 58f 59f
11:48 9 13 mph 1021.1mb 58f 59f
11:42 9 14 mph 1021.1mb 58f 59f
11:36 9 15 mph 1021mb 57f 59f
11:30 8 13 mph 1021mb 57f 60f
11:24 8 13 mph 1021mb 56f 60f
11:18 8 11 mph 1021mb 56f 60f
11:12 8 13 mph 1021mb 56f 60f
11:06 8 11 mph 1021mb 56f 60f
11:00 8 13 mph 1020.9mb 56f 61f
10:54 8 13 mph 1020.9mb 56f 61f
10:48 9 14 mph 1020.9mb 56f 60f
10:42 10 15 mph 1020.8mb 56f 61f
10:36 9 13 mph 1020.8mb 56f 61f
10:30 9 15 mph 1020.8mb 56f 61f
10:24 9 14 mph 1020.8mb 56f 61f
10:18 9 15 mph 1020.8mb 56f 61f
10:12 9 14 mph 1020.7mb 56f 61f
10:06 9 14 mph 1020.6mb 56f 61f
10:00 10 15 mph 1020.6mb 57f 61f
9:54 8 14 mph 1020.6mb 57f 61f
9:48 8 16 mph 1020.6mb 57f 62f
9:42 8 13 mph 1020.6mb 57f 62f
9:36 8 11 mph 1020.6mb 57f 62f
9:30 8 15 mph 1020.5mb 57f 62f
9:24 10 14 mph 1020.4mb 57f 63f
9:18 8 14 mph 1020.4mb 57f 62f
9:12 7 9 mph 1020.3mb 57f 62f
9:06 9 13 mph 1020.3mb 57f 63f
9:00 8 11 mph 1020.3mb 58f 63f
8:54 8 11 mph 1020.3mb 58f 63f
8:48 8 10 mph 1020.2mb 58f 63f
8:42 6 8 mph 1020.2mb 58f 63f
8:36 7 9 mph 1020.2mb 58f 63f
8:30 6 10 mph 1020.1mb 58f 63f
8:24 7 10 mph 1020.1mb 58f 63f
8:18 7 11 mph 1020mb 58f 64f
8:12 6 9 mph 1020mb 58f 64f
8:06 5 9 mph 1019.9mb 58f 63f
8:00 5 7 mph 1019.9mb 58f 63f
7:54 6 7 mph 1019.8mb 58f 64f
7:48 6 7 mph 1019.8mb 58f 64f
7:42 5 7 mph 1019.7mb 58f 63f
7:36 6 10 mph 1019.6mb 58f 64f
7:30 8 13 mph 1019.6mb 58f 65f
7:24 8 10 mph 1019.5mb 58f 65f
7:18 8 10 mph 1019.3mb 58f 65f
7:12 7 10 mph 1019.3mb 59f 65f
7:06 7 15 mph 1019.1mb 59f 65f
7:00 8 11 mph 1019mb 59f 65f
6:54 8 9 mph 1019mb 59f 65f
6:48 8 11 mph 1018.9mb 59f 65f
6:42 9 10 mph 1018.9mb 59f 66f
6:36 10 13 mph 1018.9mb 59f 66f
6:30 9 11 mph 1018.9mb 59f 66f
6:24 7 8 mph 1018.9mb 59f 65f
6:18 7 8 mph 1018.8mb 59f 67f
6:12 6 8 mph 1018.8mb 59f 66f
6:06 5 6 mph 1018.6mb 60f 66f
6:00 5 6 mph 1018.6mb 60f 66f
5:54 3 5 mph 1018.6mb 60f 66f
5:48 3 5 mph 1018.6mb 60f 66f
5:42 3 5 mph 1018.6mb 60f 66f
5:36 2 7 mph 1018.6mb 60f 66f
5:30 6 15 mph 1018.5mb 60f 66f
5:24 11 16 mph 1018.6mb 60f 69f
5:18 8 10 mph 1018.6mb 60f 66f
5:12 8 9 mph 1018.6mb 60f 66f
5:06 7 10 mph 1018.6mb 60f 65f
5:00 8 10 mph 1018.5mb 60f 66f
4:54 11 17 mph 1018.5mb 60f 67f
4:48 14 17 mph 1018.5mb 60f 70f
4:42 15 21 mph 1018.5mb 60f 70f
4:36 15 17 mph 1018.6mb 59f 69f
4:30 17 20 mph 1018.7mb 59f 70f
4:24 13 18 mph 1018.7mb 59f 69f
4:18 15 23 mph 1018.5mb 59f 71f
4:12 17 23 mph 1018.5mb 59f 71f
4:06 15 21 mph 1018.5mb 59f 68f
4:00 15 18 mph 1018.5mb 59f 69f
3:54 13 21 mph 1018.4mb 59f 67f
3:48 16 20 mph 1018.4mb 59f 69f
3:42 14 16 mph 1018.4mb 59f 67f
3:36 11 14 mph 1018.3mb 59f 67f
3:30 9 13 mph 1018.3mb 59f 66f
3:24 10 13 mph 1018.3mb 59f 66f
3:18 8 14 mph 1018.3mb 59f 66f
3:12 9 14 mph 1018.2mb 59f 66f
3:06 10 14 mph 1018.2mb 59f 66f
3:00 13 16 mph 1018.3mb 59f 66f
2:54 14 18 mph 1018.3mb 59f 67f
2:48 16 18 mph 1018.3mb 59f 70f
2:42 9 11 mph 1018.4mb 59f 65f
2:36 10 20 mph 1018.4mb 59f 65f
2:30 16 20 mph 1018.5mb 59f 70f
2:24 8 16 mph 1018.4mb 59f 65f
2:18 15 18 mph 1018.4mb 59f 69f
2:12 16 20 mph 1018.4mb 58f 69f
2:06 14 17 mph 1018.4mb 58f 68f
2:00 11 15 mph 1018.4mb 58f 66f
1:54 13 16 mph 1018.3mb 58f 66f
1:48 13 15 mph 1018.3mb 58f 65f
1:42 9 13 mph 1018.4mb 58f 66f
1:36 9 14 mph 1018.4mb 58f 65f
1:30 11 14 mph 1018.3mb 58f 66f
1:24 10 16 mph 1018.3mb 58f 65f
1:18 16 23 mph 1018.4mb 58f 67f
1:12 15 18 mph 1018.4mb 59f 67f
1:06 8 13 mph 1018.4mb 58f 64f
1:00 10 17 mph 1018.4mb 59f 65f
12:54 15 20 mph 1018.5mb 59f 67f
12:48 17 21 mph 1018.7mb 59f 67f
12:42 14 17 mph 1018.8mb 59f 68f
12:36 13 16 mph 1018.9mb 59f 68f
12:30 15 21 mph 1018.9mb 59f 67f
12:24 14 20 mph 1018.9mb 58f 66f
12:18 15 20 mph 1018.9mb 58f 66f
12:12 18 22 mph 1019mb 58f 67f
12:06 16 20 mph 1019mb 58f 66f
12:00 11 14 mph 1019mb 59f 66f
11:54 17 22 mph 1019mb 58f 68f
11:48 13 21 mph 1019.1mb 58f 67f
11:42 17 23 mph 1019.1mb 58f 68f
11:36 16 22 mph 1019.2mb 58f 67f
11:30 15 20 mph 1019mb 58f 66f
11:24 16 21 mph 1019mb 58f 67f
11:18 15 21 mph 1019mb 58f 65f
11:12 16 23 mph 1019.1mb 57f 66f
11:06 15 18 mph 1019.1mb 57f 66f
11:00 11 15 mph 1019.2mb 57f 64f
10:54 15 22 mph 1019.2mb 57f 65f
10:48 17 21 mph 1019.1mb 57f 66f
10:42 10 20 mph 1019mb 57f 64f
10:36 13 17 mph 1019.1mb 57f 65f
10:30 16 21 mph 1019mb 57f 65f
10:24 13 18 mph 1019mb 57f 64f
10:18 16 24 mph 1019.1mb 57f 65f
10:12 11 18 mph 1019mb 57f 65f
10:06 11 20 mph 1019.1mb 57f 65f
10:00 14 18 mph 1019.1mb 57f 65f
9:54 9 16 mph 1018.9mb 57f 64f
9:48 10 14 mph 1019mb 57f 64f
9:42 10 18 mph 1019.1mb 57f 64f
9:36 14 16 mph 1019mb 57f 63f
9:30 8 15 mph 1018.9mb 57f 62f
9:24 9 14 mph 1018.9mb 58f 62f
9:18 8 13 mph 1018.9mb 57f 61f
9:12 10 16 mph 1018.7mb 57f 62f
9:06 10 14 mph 1018.7mb 57f 61f
9:00 10 18 mph 1018.7mb 57f 62f
8:54 10 16 mph 1018.7mb 58f 61f
8:48 10 15 mph 1018.6mb 58f 61f
8:42 10 14 mph 1018.6mb 58f 61f
8:36 9 17 mph 1018.5mb 58f 61f
8:30 13 16 mph 1018.5mb 58f 62f
8:24 14 16 mph 1018.4mb 58f 62f
8:18 13 18 mph 1018.3mb 58f 62f
8:12 13 16 mph 1018.3mb 58f 62f
8:06 14 18 mph 1018.1mb 58f 62f
8:00 15 18 mph 1018mb 58f 62f
7:54 16 20 mph 1017.8mb 58f 62f
7:48 16 21 mph 1017.8mb 58f 62f
7:42 16 21 mph 1017.8mb 58f 62f
7:36 15 20 mph 1017.8mb 58f 62f
7:30 14 18 mph 1017.8mb 58f 62f
7:24 10 14 mph 1017.7mb 58f 61f
7:18 9 14 mph 1017.7mb 58f 61f
7:12 8 13 mph 1017.5mb 58f 61f
7:06 8 11 mph 1017.5mb 58f 61f
7:00 8 13 mph 1017.5mb 58f 61f
6:54 8 11 mph 1017.4mb 58f 61f
6:48 10 14 mph 1017.3mb 58f 61f
6:42 9 14 mph 1017.2mb 58f 61f
6:36 11 16 mph 1017.1mb 58f 62f
6:30 10 16 mph 1017mb 58f 61f
6:24 11 16 mph 1017mb 58f 61f
6:18 13 15 mph 1017mb 58f 61f
6:12 11 14 mph 1016.9mb 58f 61f
6:06 11 16 mph 1016.9mb 58f 61f
6:00 10 16 mph 1016.9mb 58f 62f
5:54 11 15 mph 1016.7mb 58f 62f
5:48 10 14 mph 1016.6mb 58f 62f
5:42 9 15 mph 1016.5mb 58f 61f
5:36 10 14 mph 1016.4mb 58f 62f
5:30 10 14 mph 1016.5mb 58f 62f
5:24 8 11 mph 1016.5mb 58f 62f
5:18 11 15 mph 1016.5mb 58f 62f
5:12 14 18 mph 1016.5mb 58f 63f
5:06 13 16 mph 1016.5mb 58f 63f
5:00 14 20 mph 1016.5mb 58f 64f
4:54 16 20 mph 1016.4mb 58f 64f
4:48 11 18 mph 1016.2mb 58f 63f
4:42 14 20 mph 1016.2mb 58f 65f
4:36 14 20 mph 1016.2mb 58f 65f
4:30 14 17 mph 1016.2mb 58f 65f
4:24 13 15 mph 1016.2mb 58f 65f
4:18 11 14 mph 1016.2mb 58f 65f
4:12 6 8 mph 1016.1mb 58f 63f
4:06 6 9 mph 1015.9mb 58f 63f
4:00 9 15 mph 1015.7mb 58f 65f
3:54 9 13 mph 1015.6mb 58f 65f
3:48 8 10 mph 1015.6mb 58f 65f
3:42 9 14 mph 1015.5mb 58f 66f
3:36 9 15 mph 1015.4mb 58f 66f
3:30 13 16 mph 1015.3mb 58f 67f
3:24 10 14 mph 1015.2mb 57f 66f
3:18 11 16 mph 1015.2mb 57f 67f
3:12 11 16 mph 1015.2mb 57f 67f
3:06 10 17 mph 1015.3mb 57f 67f
3:00 9 11 mph 1015.3mb 57f 67f
2:54 7 11 mph 1015.3mb 57f 65f
2:48 7 10 mph 1015.3mb 57f 65f
2:42 8 10 mph 1015.3mb 57f 66f
2:36 7 11 mph 1015.4mb 57f 65f
2:30 6 8 mph 1015.4mb 57f 65f
2:24 6 8 mph 1015.4mb 57f 65f
2:18 6 11 mph 1015.5mb 57f 66f
2:12 9 13 mph 1015.6mb 57f 67f
2:06 9 14 mph 1015.6mb 57f 67f
2:00 8 13 mph 1015.5mb 57f 66f
1:54 8 10 mph 1015.5mb 57f 66f
1:48 7 9 mph 1015.5mb 57f 65f
1:42 6 10 mph 1015.5mb 57f 65f
1:36 5 8 mph 1015.6mb 57f 65f
1:30 5 7 mph 1015.6mb 57f 65f
1:24 6 9 mph 1015.5mb 57f 66f
1:18 6 13 mph 1015.5mb 57f 66f
1:12 5 8 mph 1015.5mb 57f 66f
1:06 6 9 mph 1015.5mb 57f 66f
1:00 5 8 mph 1015.5mb 57f 66f
12:54 5 9 mph 1015.5mb 57f 67f
12:48 3 7 mph 1015.5mb 57f 67f
12:42 6 10 mph 1015.5mb 57f 67f
12:36 5 8 mph 1015.5mb 57f 67f
12:30 6 6 mph 1015.5mb 56f 67f
12:24 2 3 mph 1015.4mb 56f 66f
12:18 2 3 mph 1015.4mb 57f 66f
12:12 2 3 mph 1015.3mb 57f 66f
12:06 2 5 mph 1015.3mb 57f 66f
12:00 3 6 mph 1015.2mb 57f 66f
mer. 09/20 11:54 3 5 mph 1015.1mb 57f 67f
11:48 1 5 mph 1015.2mb 57f 67f
11:42  -  3 mph 1015.1mb 57f 67f
11:36 3 6 mph 1015.1mb 58f 67f
11:30 2 6 mph 1015.2mb 58f 67f
11:24 3 6 mph 1015.2mb 58f 67f
11:18 3 6 mph 1015.1mb 58f 67f
11:12 5 6 mph 1015.1mb 58f 67f
11:06 5 5 mph 1014.9mb 57f 67f
11:00 5 6 mph 1014.9mb 56f 67f
10:54 6 7 mph 1014.9mb 56f 66f
10:48 6 8 mph 1014.8mb 56f 66f
10:42 7 9 mph 1014.8mb 56f 67f
10:36 6 7 mph 1014.8mb 56f 67f
10:30 6 8 mph 1014.8mb 56f 67f
10:24 6 8 mph 1014.8mb 56f 66f
10:18 6 8 mph 1014.8mb 56f 65f
10:12 6 9 mph 1014.7mb 56f 66f
10:06 6 7 mph 1014.8mb 56f 65f
10:00 6 9 mph 1014.7mb 56f 66f
9:54 6 13 mph 1014.7mb 56f 66f
9:48 11 15 mph 1014.5mb 56f 69f
9:42 11 15 mph 1014.5mb 56f 69f
9:36 9 13 mph 1014.5mb 56f 69f
9:30 8 10 mph 1014.6mb 56f 68f
9:24 7 9 mph 1014.5mb 56f 67f
9:18 7 8 mph 1014.5mb 56f 67f
9:12 6 7 mph 1014.5mb 56f 67f
9:06 5 6 mph 1014.5mb 56f 67f
9:00 5 6 mph 1014.5mb 56f 67f
8:54 5 7 mph 1014.4mb 56f 68f
8:48 6 10 mph 1014.3mb 56f 69f
8:42 7 9 mph 1014.3mb 57f 69f
8:36 6 7 mph 1014.4mb 57f 69f
8:30 5 6 mph 1014.4mb 57f 68f
8:24 6 7 mph 1014.4mb 57f 69f
8:18 5 6 mph 1014.3mb 57f 69f
8:12 6 7 mph 1014.2mb 57f 69f
8:06 5 6 mph 1014.2mb 57f 69f
8:00 5 6 mph 1014.1mb 57f 70f
7:54 6 7 mph 1014.2mb 57f 70f
7:48 5 7 mph 1014.2mb 57f 70f
7:42 3 5 mph 1014.2mb 57f 70f
7:36 3 3 mph 1014.1mb 57f 70f
7:30 3 5 mph 1014.1mb 57f 70f
7:24 3 5 mph 1014.1mb 58f 70f
7:18 3 5 mph 1014.1mb 58f 70f
7:12 3 3 mph 1014.1mb 58f 69f
7:06 3 5 mph 1014mb 58f 70f
7:00 2 3 mph 1014mb 58f 69f
6:54 2 3 mph 1014mb 58f 69f
6:48 3 6 mph 1013.9mb 58f 70f
6:42 5 6 mph 1013.8mb 58f 70f
6:36 5 5 mph 1013.9mb 58f 70f
6:30 3 6 mph 1013.9mb 58f 70f
6:24 5 6 mph 1013.9mb 58f 70f
6:18 5 6 mph 1013.8mb 58f 70f
6:12 5 6 mph 1013.8mb 58f 70f
6:06 3 5 mph 1013.9mb 58f 69f
6:00 3 6 mph 1013.9mb 58f 69f
5:54 6 7 mph 1013.9mb 58f 70f
5:48 6 8 mph 1013.9mb 58f 70f
5:42 7 9 mph 1013.8mb 58f 70f
5:36 6 9 mph 1013.7mb 58f 69f
5:30 6 11 mph 1013.7mb 58f 70f
5:24 9 14 mph 1013.6mb 58f 71f
5:18 10 14 mph 1013.5mb 58f 73f
5:12 8 13 mph 1013.4mb 58f 73f
5:06 8 10 mph 1013.5mb 58f 70f
5:00 7 10 mph 1013.5mb 58f 70f
4:54 7 8 mph 1013.6mb 58f 69f
4:48 8 10 mph 1013.6mb 58f 69f
4:42 7 10 mph 1013.6mb 58f 70f
4:36 6 8 mph 1013.6mb 58f 69f
4:30 7 10 mph 1013.5mb 58f 69f
4:24 7 14 mph 1013.5mb 57f 68f
4:18 8 11 mph 1013.5mb 57f 70f
4:12 8 11 mph 1013.5mb 57f 70f
4:06 9 11 mph 1013.5mb 57f 70f
4:00 8 9 mph 1013.6mb 58f 69f
3:54 9 11 mph 1013.6mb 58f 69f
3:48 8 11 mph 1013.6mb 58f 69f
3:42 10 14 mph 1013.5mb 58f 70f
3:36 10 13 mph 1013.6mb 57f 70f
3:30 8 10 mph 1013.6mb 58f 69f
3:24 8 13 mph 1013.7mb 57f 70f
3:18 7 10 mph 1013.7mb 57f 72f
3:12 8 11 mph 1013.8mb 57f 71f
3:06 8 10 mph 1013.8mb 57f 70f
3:00 2 3 mph 1013.8mb 57f 69f
2:54 2 5 mph 1013.9mb 57f 70f
2:48 3 5 mph 1013.9mb 57f 70f
2:42 3 6 mph 1013.9mb 57f 69f
2:36 5 8 mph 1014mb 57f 69f
2:30 7 9 mph 1014mb 57f 70f
2:24 9 10 mph 1014mb 57f 71f
2:18 10 14 mph 1014.1mb 57f 71f
2:12 11 17 mph 1014.2mb 57f 71f
2:06 9 10 mph 1014.2mb 57f 69f
2:00 7 9 mph 1014.3mb 57f 68f
1:54 6 7 mph 1014.3mb 57f 68f
1:48 6 8 mph 1014.4mb 57f 68f
1:42 6 8 mph 1014.6mb 57f 67f
1:36 7 10 mph 1014.7mb 57f 67f
1:30 9 11 mph 1014.6mb 57f 68f
1:24 7 10 mph 1014.6mb 57f 66f
1:18 10 13 mph 1014.8mb 56f 66f
1:12 8 11 mph 1014.9mb 56f 67f
1:06 8 10 mph 1015mb 57f 67f
1:00 9 10 mph 1015mb 57f 66f
12:54 6 7 mph 1015mb 57f 66f
12:48 6 8 mph 1015.1mb 57f 66f
12:42 6 9 mph 1015.2mb 56f 66f
12:36 7 9 mph 1015.2mb 56f 66f
12:30 7 10 mph 1015.4mb 57f 66f
12:24 8 13 mph 1015.4mb 57f 68f
12:18 8 10 mph 1015.3mb 57f 67f
12:12 8 10 mph 1015.4mb 57f 66f
12:06 7 10 mph 1015.5mb 57f 65f
12:00 7 10 mph 1015.6mb 57f 65f
11:54 9 11 mph 1015.6mb 57f 66f
11:48 8 10 mph 1015.7mb 57f 66f
11:42 9 11 mph 1015.5mb 57f 66f
11:36 9 11 mph 1015.5mb 57f 68f
11:30 6 9 mph 1015.5mb 57f 67f
11:24 8 10 mph 1015.6mb 57f 68f
11:18 5 7 mph 1015.6mb 57f 66f
11:12 5 5 mph 1015.7mb 57f 66f
11:06 5 6 mph 1015.6mb 57f 66f
11:00 6 7 mph 1015.6mb 57f 65f
10:54 6 6 mph 1015.6mb 57f 65f
10:48 6 8 mph 1015.6mb 57f 66f
10:42 6 7 mph 1015.7mb 57f 65f
10:36 6 10 mph 1015.7mb 57f 65f
10:30 7 10 mph 1015.6mb 56f 66f
10:24 7 9 mph 1015.7mb 56f 65f
10:18 7 9 mph 1015.7mb 56f 65f
10:12 7 9 mph 1015.8mb 56f 65f
10:06 8 9 mph 1015.9mb 56f 65f
10:00 6 8 mph 1015.9mb 56f 65f
9:54 6 8 mph 1015.9mb 56f 65f
9:48 6 8 mph 1015.9mb 56f 65f
9:42 5 7 mph 1015.9mb 56f 65f
9:36 5 7 mph 1015.9mb 56f 64f
9:30 5 6 mph 1015.8mb 56f 65f
9:24 3 5 mph 1015.8mb 56f 65f
9:18 3 6 mph 1015.9mb 56f 65f
9:12 2 7 mph 1016mb 56f 65f
9:06  -  2 mph 1016mb 56f 65f
9:00  -  2 mph 1016.1mb 56f 65f
8:54  -  0 mph 1016.2mb 56f 65f
8:48  -  0 mph 1016.2mb 56f 65f
8:42  -  1 mph 1016.2mb 56f 65f
8:36  -  2 mph 1016.2mb 56f 65f
8:30  -  2 mph 1016.3mb 56f 65f
8:24 1 2 mph 1016.3mb 56f 65f
8:18  -  2 mph 1016.3mb 56f 65f
8:12 2 2 mph 1016.2mb 56f 65f
8:06 2 5 mph 1016.1mb 56f 65f
8:00 3 3 mph 1016.1mb 56f 64f
7:54 2 3 mph 1016.1mb 56f 64f
7:48 1 1 mph 1016.1mb 56f 65f
7:42  -  1 mph 1016.2mb 56f 65f
7:36  -  2 mph 1016.4mb 56f 65f
7:30 1 2 mph 1016.4mb 56f 64f
7:24  -  2 mph 1016.4mb 56f 64f
7:18 1 2 mph 1016.3mb 56f 64f
7:12  -  1 mph 1016.4mb 56f 64f
7:06  -  2 mph 1016.4mb 56f 64f
7:00 1 2 mph 1016.5mb 56f 64f
6:54  -  2 mph 1016.5mb 56f 64f
6:48 2 3 mph 1016.5mb 56f 64f
6:42  -  1 mph 1016.6mb 56f 64f
6:36  -  1 mph 1016.6mb 56f 64f
6:30  -  1 mph 1016.6mb 56f 64f
6:24  -  2 mph 1016.6mb 56f 64f
6:18 2 3 mph 1016.6mb 56f 64f
6:12 2 5 mph 1016.5mb 56f 64f
6:06 2 5 mph 1016.5mb 56f 65f
6:00 3 6 mph 1016.5mb 56f 64f
5:54 3 6 mph 1016.4mb 56f 64f
5:48 5 5 mph 1016.3mb 56f 64f
5:42 3 6 mph 1016.4mb 56f 64f
5:36  -  3 mph 1016.4mb 56f 64f
5:30 1 2 mph 1016.4mb 56f 64f
5:24 1 2 mph 1016.4mb 56f 64f
5:18 2 2 mph 1016.4mb 56f 64f
5:12 1 2 mph 1016.3mb 56f 64f
5:06  -  1 mph 1016.3mb 56f 64f
5:00 1 2 mph 1016.3mb 56f 64f
4:54 1 2 mph 1016.4mb 57f 64f
4:48 1 3 mph 1016.4mb 56f 64f
4:42  -  2 mph 1016.4mb 56f 64f
4:36  -  2 mph 1016.3mb 56f 63f
4:30 2 3 mph 1016.3mb 56f 63f
4:24 2 3 mph 1016.5mb 56f 62f
4:18 5 6 mph 1016.5mb 57f 63f
4:12 5 6 mph 1016.5mb 57f 63f
4:06 2 2 mph 1016.6mb 56f 64f
4:00  -  0 mph 1016.6mb 56f 64f
3:54  -  1 mph 1016.6mb 56f 64f
3:48  -  1 mph 1016.6mb 56f 65f
3:42  -  0 mph 1016.7mb 56f 64f
3:36  -  0 mph 1016.8mb 56f 64f
3:30  -  1 mph 1016.8mb 56f 64f
3:24 1 2 mph 1016.8mb 56f 64f
3:18 1 2 mph 1016.8mb 56f 64f
3:12  -  1 mph 1016.8mb 56f 64f
3:06 1 1 mph 1016.9mb 56f 64f
3:00 1 2 mph 1017mb 56f 64f
2:54 2 2 mph 1017mb 56f 64f
2:48 2 2 mph 1017mb 56f -
2:42 2 2 mph 1017mb 56f -
2:36 2 2 mph 1017.1mb 56f -
2:30 1 2 mph 1017.2mb 56f 64f
2:24 2 3 mph 1017.2mb 56f 63f
2:18 2 5 mph 1017.3mb 56f 63f
2:12 3 5 mph 1017.3mb 56f 63f
2:06 3 5 mph 1017.3mb 56f 63f
2:00 3 5 mph 1017.4mb 56f 62f
1:54 3 5 mph 1017.5mb 56f 62f
1:48 3 5 mph 1017.6mb - -
1:42 3 5 mph 1017.6mb - -
1:36 5 6 mph 1017.7mb - -
1:30 3 5 mph 1017.8mb 56f 62f
1:24 5 6 mph 1017.8mb 56f 62f
1:18 2 2 mph 1017.9mb 56f 63f
1:12 1 1 mph 1017.9mb 56f 63f
1:06  -  1 mph 1018mb 56f 63f
1:00  -  0 mph 1018mb 56f 63f
12:54  -  0 mph 1018.1mb 56f 64f
12:48  -  1 mph 1018.1mb 56f 64f
12:42  -  1 mph 1018.1mb 56f 63f
12:36 1 1 mph 1018.2mb 56f 63f
12:30  -  1 mph 1018.1mb 56f 64f
12:24  -  1 mph 1018.1mb 57f 63f
12:18  -  1 mph 1018.1mb 57f 64f
12:12  -  1 mph 1018.2mb 57f 63f
12:06 1 1 mph 1018.2mb 57f 63f
12:00  -  2 mph 1018.3mb 57f 64f
mar. 09/19 11:54 2 3 mph 1018.4mb 57f 64f
11:48 2 3 mph 1018.4mb 57f 64f
11:42 2 3 mph 1018.5mb 57f 64f
11:36 2 3 mph 1018.6mb 57f 64f
11:30 2 3 mph 1018.7mb 57f 64f
11:24 2 2 mph 1018.7mb 57f 64f
11:18 1 1 mph 1018.8mb 57f 64f
11:12 2 2 mph 1018.9mb 57f 64f
11:06  -  2 mph 1019mb 57f 63f
11:00  -  2 mph 1019.1mb 56f 63f
10:54  -  1 mph 1019.1mb 56f 63f
10:48  -  1 mph 1019.1mb 56f 63f
10:42  -  1 mph 1019.1mb 56f 63f
10:36 1 2 mph 1019.1mb 56f 63f
10:30 1 2 mph 1019.2mb 56f 64f
10:24 1 3 mph 1019.2mb 56f 64f
10:18 2 5 mph 1019.3mb 56f 64f
10:12 3 5 mph 1019.3mb 56f 64f
10:06 3 5 mph 1019.3mb 56f 64f
10:00 5 5 mph 1019.3mb 56f 64f
9:54 3 5 mph 1019.3mb 56f 64f
9:48 3 5 mph 1019.2mb 56f 64f
9:42 2 2 mph 1019.3mb 56f 64f
9:36 2 2 mph 1019.3mb 56f 64f
9:30 2 3 mph 1019.4mb 56f 64f
9:24 2 3 mph 1019.3mb 56f 64f
9:18 2 3 mph 1019.4mb 56f 64f
9:12 1 1 mph 1019.5mb 56f 64f
9:06  -  1 mph 1019.5mb 56f 64f
9:00  -  1 mph 1019.5mb 56f 64f
8:54  -  0 mph 1019.5mb 56f 64f
8:48  -  1 mph 1019.4mb 56f 64f
8:42  -  1 mph 1019.4mb 56f 64f
8:36  -  1 mph 1019.4mb 56f 64f
8:30  -  0 mph 1019.5mb 56f 63f
8:24  -  0 mph 1019.5mb 56f 63f
8:18  -  1 mph 1019.5mb 56f 64f
8:12 2 2 mph 1019.5mb 56f 64f
8:06 1 2 mph 1019.4mb 56f 64f
8:00 1 2 mph 1019.5mb 56f 64f
7:54  -  1 mph 1019.5mb 56f 64f
7:48  -  2 mph 1019.5mb 56f 64f
7:42  -  2 mph 1019.5mb 56f 64f
7:36  -  1 mph 1019.5mb 56f 64f
7:30 1 3 mph 1019.5mb 56f 64f
7:24  -  2 mph 1019.5mb 56f 64f
7:18 1 2 mph 1019.6mb 56f 64f
7:12 1 2 mph 1019.7mb 56f 64f
7:06  -  1 mph 1019.7mb 56f 64f
7:00  -  1 mph 1019.8mb 56f 64f
6:54  -  1 mph 1019.7mb 56f 64f
6:48  -  0 mph 1019.7mb 56f 64f
6:42  -  1 mph 1019.7mb 56f 64f
6:36  -  2 mph 1019.8mb 56f 64f
6:30 2 2 mph 1019.8mb 56f 64f
6:24  -  2 mph 1019.8mb 56f 64f
6:18  -  1 mph 1019.8mb 56f 64f
6:12  -  1 mph 1019.8mb 56f 63f
6:06 1 1 mph 1019.8mb 56f 63f
6:00  -  2 mph 1019.8mb 56f 63f
5:54  -  2 mph 1019.8mb 56f 63f
5:48  -  2 mph 1019.8mb 56f 63f
5:42 2 6 mph 1019.8mb 56f 63f
5:36 3 5 mph 1019.8mb 56f 63f
5:30 2 5 mph 1019.8mb 56f 63f
5:24 5 6 mph 1019.8mb 56f 63f
5:18 3 7 mph 1019.8mb 56f 63f
5:12 5 6 mph 1019.8mb 56f 63f
5:06 5 6 mph 1019.7mb 56f 63f
5:00 5 6 mph 1019.7mb 56f 63f
4:54 6 7 mph 1019.7mb 56f 63f
4:48 5 7 mph 1019.6mb 56f 63f
4:42 5 7 mph 1019.7mb 56f 63f
4:36 6 7 mph 1019.7mb 56f 63f
4:30 6 8 mph 1019.8mb 56f 63f
4:24 6 8 mph 1019.9mb 56f 63f
4:18 6 7 mph 1020mb 56f 63f
4:12 5 8 mph 1019.9mb 56f 63f
4:06 5 7 mph 1019.9mb 56f 63f
4:00 5 6 mph 1020mb 56f 63f
3:54 5 6 mph 1020.1mb 56f 63f
3:48 3 5 mph 1020.2mb 56f 63f
3:42 5 7 mph 1020.3mb 56f 63f
3:36 5 6 mph 1020.3mb 56f 63f
3:30 3 6 mph 1020.2mb 56f 63f
3:24 5 6 mph 1020.3mb 56f 63f
3:18 6 6 mph 1020.4mb 56f 63f
3:12 5 6 mph 1020.5mb 56f 63f
3:06 6 7 mph 1020.4mb 56f 63f
3:00 3 6 mph 1020.5mb 56f 63f
2:54 5 7 mph 1020.6mb 56f 63f
2:48 5 8 mph 1020.6mb 56f 63f
2:42 6 7 mph 1020.7mb 56f 63f
2:36 5 6 mph 1020.7mb 56f 63f
2:30 2 5 mph 1020.8mb 56f 63f
2:24 2 5 mph 1020.9mb 56f 63f
2:18 3 5 mph 1021mb 56f 62f
2:12 3 5 mph 1021mb 56f 63f
2:06 3 3 mph 1021mb 56f 62f
2:00 2 5 mph 1021.1mb 56f 62f
1:54 2 6 mph 1021.2mb 56f 62f
1:48 3 5 mph 1021.2mb 56f 62f
1:42 3 6 mph 1021.3mb 56f 62f
1:36 5 6 mph 1021.3mb 56f 62f
1:30 5 6 mph 1021.4mb 56f 62f
1:24 3 7 mph 1021.5mb 56f 62f
1:18 3 6 mph 1021.5mb 56f 63f
1:12 3 7 mph 1021.6mb 56f 63f
1:06 2 6 mph 1021.7mb 56f 63f
1:00 5 6 mph 1021.7mb 56f 63f
12:54 3 7 mph 1021.8mb 56f 63f
12:48 5 7 mph 1021.9mb 56f 63f
12:42 5 6 mph 1021.8mb 56f 63f
12:36 3 7 mph 1021.9mb 56f 62f
12:30 6 7 mph 1022mb 56f 63f
12:24 5 6 mph 1022.2mb 56f 63f
12:18 5 6 mph 1022.3mb 56f 63f
12:12 3 6 mph 1022.3mb 56f 63f
12:06 2 5 mph 1022.3mb 56f 63f
12:00 3 5 mph 1022.4mb 56f 63f
11:54 3 5 mph 1022.4mb 56f 62f
11:48 3 5 mph 1022.5mb 56f 62f
11:42 2 5 mph 1022.5mb 56f 62f
11:36 2 3 mph 1022.6mb 56f 62f
11:30 2 3 mph 1022.6mb 56f 62f
11:24 2 2 mph 1022.6mb 56f 62f
11:18 2 3 mph 1022.6mb 56f 61f
11:12 2 2 mph 1022.6mb 56f 61f
11:06 1 3 mph 1022.7mb 56f 62f
11:00 1 3 mph 1022.8mb 56f 62f
10:54 2 3 mph 1022.8mb 56f 61f
10:48 2 2 mph 1022.8mb 56f 61f
10:42 1 2 mph 1022.8mb 56f 61f
10:36 1 1 mph 1022.8mb 56f 61f
10:30 1 1 mph 1022.8mb 56f 61f
10:24  -  1 mph 1022.8mb 56f 61f
10:18  -  1 mph 1022.9mb 56f 61f
10:12  -  1 mph 1022.9mb 56f 61f
10:06  -  1 mph 1022.8mb 56f 61f
10:00 1 1 mph 1022.8mb 56f 61f
9:54  -  1 mph 1022.8mb 56f 61f
9:48  -  1 mph 1022.9mb 56f 61f
9:42  -  1 mph 1022.9mb 56f 61f
9:36  -  1 mph 1022.9mb 56f 61f
9:30  -  1 mph 1022.9mb 56f 61f
9:24  -  0 mph 1022.9mb 56f 61f
9:18  -  0 mph 1022.9mb 56f 61f
9:12  -  1 mph 1022.9mb 56f 61f
9:06  -  0 mph 1022.9mb 56f 61f
9:00  -  0 mph 1022.8mb 55f 61f
8:54  -  0 mph 1022.8mb 56f 61f
8:48  -  0 mph 1022.9mb 56f 61f
8:42  -  0 mph 1022.9mb 56f 61f
8:36  -  1 mph 1022.9mb 56f 61f
8:30  -  0 mph 1022.9mb 56f 60f
8:24  -  0 mph 1022.8mb 56f 61f
8:18  -  0 mph 1022.8mb 56f 61f
8:12  -  1 mph 1022.8mb 56f 60f
8:06  -  1 mph 1022.8mb 56f 60f
8:00  -  1 mph 1022.7mb 56f 60f
7:54  -  1 mph 1022.7mb 56f 61f
7:48  -  1 mph 1022.7mb 56f 60f
7:42  -  1 mph 1022.7mb 56f 60f
7:36  -  1 mph 1022.7mb 56f 60f
7:30  -  1 mph 1022.7mb 56f 60f
7:24  -  1 mph 1022.7mb 56f 60f
7:18  -  0 mph 1022.7mb 56f 60f